Wind_Speed
23 24 25 25 24 23 24 24 24 24 23 21 19 17 16 14 13 12 10 10 9 8 8 7 7 7 6 6 6 6 5 5 5 5 5 5 6 6 6 7 7 8 8
24 24 24 25 26 26 25 25 25 25 25 24 23 21 19 17 15 14 13 12 11 10 9 9 8 8 8 7 7 7 6 6 6 6 6 6 7 7 7 8 8 8 9
26 25 25 25 26 27 27 26 26 26 26 26 26 24 22 20 18 17 15 14 13 12 11 10 10 9 9 9 8 8 8 7 7 7 7 7 8 8 8 9 9 9 9
28 27 26 26 27 28 28 28 28 27 27 27 28 27 26 24 22 20 18 17 16 14 13 12 12 11 10 10 10 9 9 8 8 8 8 9 9 9 10 10 10 10 10
31 29 29 28 28 29 30 30 29 29 29 29 29 29 28 27 25 23 21 20 18 17 15 14 14 13 12 11 11 11 10 10 9 9 9 10 10 10 10 11 11 11 11
34 32 31 30 30 30 31 32 31 31 31 31 31 31 30 29 28 27 25 23 21 19 18 16 15 15 14 13 12 12 12 11 11 11 11 11 11 11 12 12 12 12 12
37 35 34 33 32 32 32 33 33 33 33 33 33 33 32 31 31 30 28 26 24 22 20 19 18 17 16 15 14 14 13 13 12 12 12 12 12 13 13 13 13 13 13
40 39 37 36 35 34 33 33 34 34 34 35 34 34 34 34 33 32 31 29 27 25 23 21 20 19 18 17 16 15 15 15 14 14 14 14 14 14 14 14 14 14 15
43 41 40 38 38 37 36 35 35 35 36 36 36 36 36 36 36 35 34 32 30 28 26 24 22 21 20 19 18 17 17 17 16 16 16 16 16 15 15 16 16 16 16
46 44 43 42 40 39 38 38 37 36 37 37 38 38 38 38 38 37 36 35 33 31 29 27 25 23 22 21 20 19 19 18 18 18 18 17 18 17 17 17 18 18 18
49 47 46 44 43 42 41 40 40 38 39 39 39 40 40 40 39 39 38 37 35 33 31 29 28 26 24 23 23 22 21 21 20 20 19 19 19 19 19 19 19 20 20
51 49 48 47 45 45 44 43 42 41 40 40 41 41 41 41 41 41 40 39 37 36 34 32 30 28 27 26 25 24 23 23 22 22 21 21 21 21 21 21 21 22 22
52 51 50 49 48 47 46 45 43 43 42 42 42 41 42 42 42 42 41 41 39 38 36 34 32 31 29 28 27 27 26 25 25 24 24 23 23 23 23 23 23 24 24
54 54 53 52 51 50 49 48 46 46 45 43 42 43 42 43 43 43 43 42 41 40 39 37 35 34 32 31 30 29 28 28 27 26 26 26 26 25 25 25 25 26 26
56 56 55 55 54 53 52 50 49 47 46 44 43 43 43 44 45 45 45 44 43 42 41 39 38 36 35 33 32 31 30 30 29 29 28 28 28 28 27 27 27 27 28
57 57 56 57 57 56 54 52 51 49 48 46 44 44 43 44 45 46 46 46 45 43 42 42 40 39 37 36 34 33 33 32 32 31 31 31 30 30 30 30 30 30 30
58 58 58 58 58 58 57 55 53 51 50 49 47 46 45 45 46 46 46 46 45 45 45 44 42 41 40 38 37 36 35 34 34 34 33 33 33 33 32 32 32 32 32
59 58 59 60 59 59 59 57 56 55 54 52 50 48 47 46 46 47 47 47 47 47 47 46 45 43 42 41 40 39 38 37 36 36 35 35 35 35 35 34 34 34 34
57 57 58 59 59 59 60 59 59 57 55 55 52 50 49 48 48 48 48 49 49 48 48 48 46 46 45 44 43 42 41 39 39 38 38 38 37 37 36 35 35 34 34
54 55 56 58 58 59 59 59 59 58 56 55 53 52 51 51 50 49 50 50 50 51 50 49 49 49 48 47 47 46 44 43 41 40 40 39 38 38 36 35 35 35 35
50 52 54 55 56 58 59 59 59 57 57 56 54 53 52 52 52 52 52 52 52 52 51 51 51 51 50 49 48 48 47 45 43 41 40 40 39 39 38 37 37 37 38
44 47 50 52 53 55 57 57 57 57 56 56 55 55 54 53 53 54 53 53 54 54 54 52 53 54 53 53 51 49 47 46 45 43 42 41 41 41 40 39 39 39 39
36 40 44 46 48 50 53 55 55 54 53 52 52 52 53 54 53 52 53 53 53 53 54 54 54 54 53 52 52 51 49 46 45 45 44 44 44 44 43 42 42 42 42
29 32 34 38 42 45 48 51 53 53 51 49 49 49 50 51 52 53 51 51 53 52 52 53 54 53 52 51 51 50 49 48 48 46 46 46 46 46 46 46 45 44 43
25 28 29 32 35 38 41 44 47 48 49 49 48 47 48 50 51 53 53 51 51 50 50 50 52 53 53 52 51 51 50 49 48 48 48 48 48 48 47 47 47 45 45
21 24 26 29 31 33 34 38 42 44 45 47 47 47 47 49 50 51 51 51 51 50 50 50 50 53 54 54 53 53 52 51 50 50 50 49 49 48 49 48 47 46 44
Wind_Direction
255 254 252 252 253 254 252 250 248 246 244 241 240 240 241 242 244 246 251 259 266 271 276 281 288 291 295 298 295 291 286 282 277 274 275 278 283 290 300 310 319 326 331
256 255 253 252 251 252 252 251 250 248 246 244 243 242 242 243 244 245 248 253 259 264 269 272 279 283 285 291 292 290 285 283 280 278 277 278 281 286 294 303 310 316 321
255 255 254 253 252 252 251 251 250 249 248 246 244 244 244 243 244 245 246 250 255 258 263 268 272 275 278 282 288 288 284 280 278 277 277 276 279 284 290 297 305 309 313
255 255 254 254 253 252 251 251 250 249 248 247 246 244 244 244 244 245 246 248 252 254 257 262 267 269 272 276 281 284 281 277 276 275 275 276 279 282 287 292 299 303 307
255 255 254 253 253 252 251 250 249 249 248 247 247 246 245 245 244 245 245 247 249 251 254 257 263 264 267 270 274 277 277 275 275 274 275 275 277 279 284 289 294 298 301
255 255 255 254 253 252 251 250 248 248 248 247 247 246 245 245 245 245 245 246 247 249 251 254 258 261 262 264 267 271 273 273 274 274 275 274 276 278 281 286 290 293 298
254 254 254 253 252 251 251 250 248 247 247 246 246 246 245 245 245 245 245 245 246 248 250 251 255 258 260 261 263 266 269 270 272 273 273 273 274 276 280 284 287 290 294
252 252 252 252 251 250 249 249 249 247 247 247 246 245 245 245 245 244 245 245 245 247 249 250 252 255 257 259 260 262 265 267 268 269 270 271 273 274 277 281 284 287 290
251 251 250 250 250 249 248 248 248 247 247 247 246 245 245 245 244 245 244 244 245 245 247 248 250 252 255 257 259 260 262 264 265 266 268 270 271 272 274 278 281 284 287
250 250 249 248 248 248 248 247 247 247 246 246 246 245 245 244 244 245 245 245 245 245 246 247 248 250 253 255 256 258 259 261 263 264 266 268 270 271 273 276 279 282 285
248 248 248 247 246 246 246 247 247 246 246 245 245 245 244 244 244 244 244 245 245 245 246 247 247 249 251 253 255 256 257 259 260 262 264 267 269 271 273 275 277 280 283
247 247 246 245 245 245 245 245 245 246 245 245 244 244 244 244 243 243 243 244 244 245 246 247 248 248 250 252 253 255 256 257 258 260 263 265 268 270 272 274 276 279 282
246 245 244 243 243 244 244 244 244 244 245 244 243 243 243 243 242 243 243 243 244 245 245 246 247 248 249 250 252 253 255 256 257 258 261 263 266 269 271 273 275 278 281
246 244 242 241 241 242 243 243 244 243 242 243 243 243 242 241 241 242 242 243 243 244 245 245 246 248 249 250 251 252 254 255 256 257 260 262 265 267 269 271 274 276 279
246 243 241 240 240 240 241 241 241 241 241 241 242 242 241 241 242 242 242 243 243 244 245 246 246 247 248 250 251 252 253 255 256 257 258 261 264 266 268 270 273 276 278
246 244 242 241 240 239 240 240 239 239 239 239 240 240 241 241 241 242 243 243 243 244 245 246 246 247 248 249 250 251 253 255 257 257 258 261 263 266 268 269 272 275 278
247 244 242 240 239 239 238 238 237 237 237 237 237 238 240 241 241 241 242 243 244 244 245 245 247 248 248 249 251 252 253 255 257 257 258 260 263 265 267 269 271 273 276
247 245 243 240 239 238 237 237 236 237 236 235 236 237 239 240 241 241 241 241 243 244 245 246 247 248 249 250 250 251 253 254 256 257 259 261 263 265 267 269 271 272 274
248 245 243 241 240 238 237 236 236 236 236 234 235 236 237 239 240 241 241 242 243 244 245 246 247 248 248 250 251 251 253 255 256 256 258 261 262 265 266 268 270 271 273
248 245 243 242 240 239 237 236 236 236 235 235 235 236 236 238 239 241 241 242 243 243 245 246 247 248 249 250 251 252 253 254 255 256 259 261 262 264 265 267 269 270 272
247 245 243 243 241 239 237 236 236 236 236 235 236 236 236 237 238 240 242 242 243 243 244 246 247 248 250 251 252 253 253 254 256 257 260 261 262 263 264 265 267 269 271
248 246 244 243 242 239 237 236 236 235 235 235 236 236 236 237 238 239 241 242 243 243 244 245 247 248 250 251 252 253 254 255 256 258 259 260 262 264 264 264 266 269 270
248 246 244 242 240 238 236 235 236 235 235 235 236 236 236 236 237 239 241 242 243 245 246 246 247 249 250 252 253 255 255 257 257 257 259 260 261 262 262 262 265 267 270
244 242 242 241 239 238 238 237 236 236 235 235 235 236 236 236 237 238 240 241 244 246 247 248 248 249 250 252 253 254 255 257 258 259 259 260 261 263 263 264 265 267 268
243 241 240 239 237 237 237 237 236 234 234 235 235 234 235 235 236 239 240 242 245 248 248 248 248 249 252 253 255 256 257 258 259 260 261 261 262 263 263 263 265 266 268
244 242 242 239 238 236 235 235 234 233 234 235 235 236 237 237 238 239 240 243 245 247 248 249 250 252 253 254 255 255 257 258 259 260 262 262 262 263 263 264 265 265 267
Height
5849 5851 5852 5854 5855 5857 5859 5861 5863 5865 5866 5868 5869 5870 5871 5872 5873 5874 5875 5876 5877 5878 5879 5880 5880 5880 5881 5881 5881 5881 5881 5881 5882 5882 5882 5882 5882 5882 5882 5881 5881 5880 5879
5846 5847 5848 5850 5852 5853 5855 5857 5859 5861 5863 5865 5866 5868 5869 5870 5871 5872 5873 5874 5875 5876 5877 5878 5879 5879 5880 5880 5880 5880 5880 5881 5881 5881 5881 5881 5881 5881 5881 5880 5880 5879 5879
5841 5843 5844 5846 5847 5849 5851 5853 5855 5857 5859 5861 5863 5864 5866 5867 5868 5869 5871 5872 5873 5874 5875 5876 5877 5878 5878 5879 5879 5879 5879 5880 5880 5880 5880 5880 5880 5880 5880 5880 5879 5879 5878
5837 5838 5840 5842 5843 5844 5846 5848 5850 5852 5854 5856 5858 5860 5862 5864 5865 5867 5868 5869 5871 5872 5873 5874 5875 5876 5877 5877 5878 5878 5878 5878 5878 5879 5879 5879 5879 5879 5879 5878 5878 5877 5877
5831 5833 5835 5837 5838 5840 5841 5843 5845 5847 5849 5851 5854 5856 5858 5860 5862 5863 5865 5866 5868 5869 5871 5872 5873 5874 5875 5875 5876 5876 5876 5877 5877 5877 5877 5877 5877 5877 5877 5877 5877 5876 5875
5825 5827 5829 5831 5833 5835 5836 5838 5840 5842 5844 5846 5849 5851 5853 5855 5857 5859 5861 5863 5864 5866 5867 5869 5870 5871 5872 5873 5874 5874 5875 5875 5875 5875 5876 5876 5876 5876 5875 5875 5875 5874 5874
5818 5821 5823 5825 5827 5829 5831 5832 5834 5836 5839 5841 5843 5846 5848 5850 5852 5854 5857 5859 5860 5862 5864 5865 5867 5868 5869 5870 5871 5872 5872 5873 5873 5873 5874 5874 5874 5873 5873 5873 5873 5873 5872
5811 5813 5815 5818 5820 5822 5824 5826 5828 5830 5833 5835 5837 5840 5842 5845 5847 5849 5852 5854 5856 5858 5860 5862 5863 5864 5866 5867 5868 5869 5869 5870 5871 5871 5871 5871 5871 5871 5871 5871 5871 5870 5870
5802 5805 5807 5810 5812 5815 5817 5820 5822 5824 5826 5829 5831 5834 5836 5839 5841 5844 5846 5849 5851 5853 5855 5857 5859 5860 5862 5863 5864 5865 5866 5867 5868 5868 5868 5869 5869 5869 5868 5868 5868 5868 5867
5792 5795 5798 5801 5804 5807 5810 5812 5815 5817 5820 5822 5824 5827 5830 5832 5835 5838 5840 5843 5846 5848 5850 5853 5854 5856 5858 5859 5860 5861 5862 5863 5864 5865 5865 5865 5865 5865 5865 5865 5865 5865 5864
5782 5786 5789 5792 5796 5799 5801 5804 5807 5810 5812 5815 5817 5820 5823 5826 5829 5831 5834 5837 5840 5842 5845 5847 5850 5851 5853 5854 5856 5857 5858 5859 5860 5861 5861 5862 5862 5862 5862 5862 5862 5861 5861
5772 5776 5779 5783 5786 5790 5793 5796 5799 5802 5804 5807 5810 5813 5816 5819 5822 5824 5827 5830 5833 5836 5839 5842 5844 5846 5848 5849 5851 5852 5853 5854 5855 5856 5857 5857 5858 5858 5858 5858 5858 5858 5857
5761 5765 5769 5773 5776 5780 5784 5787 5791 5794 5796 5799 5802 5805 5808 5811 5814 5817 5821 5824 5827 5830 5833 5835 5838 5840 5842 5844 5845 5847 5848 5849 5850 5851 5852 5853 5853 5853 5854 5854 5854 5853 5853
5749 5753 5758 5762 5766 5770 5774 5778 5781 5785 5788 5791 5794 5797 5800 5803 5807 5810 5813 5816 5819 5823 5826 5829 5831 5833 5836 5838 5839 5841 5842 5844 5845 5846 5847 5848 5848 5848 5849 5849 5849 5849 5848
5736 5741 5746 5750 5755 5760 5764 5768 5772 5776 5779 5783 5786 5789 5792 5796 5799 5802 5806 5809 5812 5815 5818 5821 5824 5827 5829 5831 5833 5835 5836 5838 5839 5840 5841 5842 5843 5843 5843 5843 5843 5843 5843
5723 5729 5734 5739 5743 5748 5753 5757 5762 5766 5769 5773 5777 5780 5784 5787 5791 5794 5798 5801 5805 5808 5811 5814 5817 5819 5822 5824 5826 5828 5830 5832 5833 5834 5835 5836 5837 5837 5837 5838 5838 5838 5837
5710 5715 5720 5726 5731 5736 5741 5747 5751 5755 5759 5764 5768 5771 5775 5779 5782 5786 5789 5793 5796 5800 5803 5805 5809 5812 5815 5817 5819 5821 5823 5825 5826 5827 5828 5829 5830 5831 5831 5831 5831 5831 5831
5697 5702 5707 5712 5718 5724 5729 5735 5740 5744 5749 5754 5758 5762 5766 5770 5773 5777 5781 5785 5788 5791 5794 5797 5801 5804 5807 5809 5811 5813 5815 5817 5819 5820 5821 5822 5823 5823 5824 5824 5824 5824 5824
5683 5688 5694 5699 5705 5711 5717 5723 5728 5733 5738 5743 5748 5752 5757 5760 5764 5768 5772 5776 5779 5782 5785 5789 5792 5795 5798 5800 5803 5805 5807 5809 5810 5812 5813 5814 5815 5816 5816 5817 5817 5817 5817
5671 5675 5680 5686 5692 5699 5705 5710 5717 5722 5728 5733 5738 5742 5747 5751 5755 5759 5763 5766 5769 5773 5776 5780 5783 5786 5789 5791 5793 5796 5798 5800 5802 5803 5805 5806 5807 5808 5809 5809 5809 5809 5809
5659 5663 5668 5673 5679 5685 5692 5699 5705 5711 5717 5722 5728 5732 5736 5741 5745 5749 5753 5757 5760 5763 5767 5771 5773 5776 5779 5781 5784 5786 5789 5791 5793 5795 5796 5798 5799 5800 5801 5801 5801 5801 5801
5648 5652 5657 5662 5667 5673 5680 5687 5693 5700 5705 5712 5716 5721 5726 5731 5736 5740 5743 5747 5750 5754 5757 5760 5763 5766 5769 5772 5774 5776 5779 5782 5784 5786 5787 5789 5790 5791 5791 5792 5792 5793 5793
5638 5642 5646 5651 5657 5662 5669 5675 5681 5688 5694 5701 5706 5711 5716 5721 5725 5729 5733 5737 5740 5743 5747 5751 5753 5756 5759 5762 5764 5767 5770 5772 5774 5776 5777 5779 5780 5781 5782 5782 5783 5783 5784
5631 5634 5638 5642 5647 5653 5658 5664 5671 5678 5685 5691 5696 5701 5705 5710 5715 5719 5723 5727 5730 5733 5737 5740 5743 5746 5748 5751 5753 5756 5760 5762 5763 5765 5767 5769 5770 5771 5772 5773 5773 5774 5774
5625 5627 5631 5635 5639 5645 5650 5656 5662 5669 5675 5681 5686 5691 5696 5700 5705 5709 5713 5717 5720 5723 5727 5730 5732 5735 5738 5741 5743 5746 5748 5750 5752 5754 5756 5758 5759 5760 5761 5762 5763 5764 5765
5620 5622 5625 5629 5633 5638 5643 5648 5654 5661 5666 5672 5677 5682 5686 5691 5695 5699 5703 5707 5710 5713 5717 5720 5722 5725 5727 5730 5732 5735 5737 5739 5742 5743 5744 5746 5747 5749 5750 5751 5752 5753 5754